Location: Perugia
(43.1330°N, 12.3670°E)
Time: 06:46:50
(UTC+01:00)

ISS - Pass Details

Date: 01 February 2021
Orbit: 417 x 422 km, 51.6° (Epoch: 08 March)

Event Time Altitude Azimuth Distance (km) Brightness Sun altitude
Rises 18:53:42 0° 305° (NW) 2,375 0.8 -16.8°
Reaches altitude 10° 18:55:53 10° 312° (NW) 1,509 -0.4 -17.1°
Maximum altitude 18:59:08 43° 25° (NNE) 607 -3.2 -17.7°
Enters shadow 18:59:16 42° 33° (NNE) 609 -3.3 -17.8°
